Location: Lucerne Valley
(34.4439°N, 116.9669°E)
Time: 16:15:03
(UTC-07:00)

Vanguard 1 - Visible Passes

Search period start: 21 October 2017 00:00
Search period end: 31 October 2017 00:00
Orbit: 650 x 3834 km, 34.3° (Epoch: 21 October)

Date Brightness Start Highest point End Pass type
(mag) Time Alt. Az. Time Alt. Az. Time Alt. Az.
21 Oct 13.1 09:53:46 42° E 09:53:46 42° E 10:06:27 10° E visible
21 Oct 12.4 12:06:28 66° W 12:10:58 89° S 12:35:06 10° E visible
21 Oct 13.0 14:19:11 15° WNW 14:38:30 67° SSW 15:00:18 10° SE visible
22 Oct 12.9 10:13:37 49° E 10:13:37 49° E 10:28:29 10° E visible
22 Oct 12.4 12:26:20 57° W 12:32:49 85° SSW 12:56:52 10° ESE visible
22 Oct 13.1 14:39:03 10° WNW 14:59:55 59° SSW 15:21:03 10° SE visible
23 Oct 14.0 08:20:48 11° ENE 08:20:48 11° ENE 08:21:19 10° ENE visible
23 Oct 12.7 10:33:30 58° E 10:33:30 58° E 10:50:33 10° E visible
23 Oct 12.5 12:46:14 48° W 12:54:37 80° SSW 13:18:28 10° ESE visible
24 Oct 13.8 08:40:43 15° ENE 08:40:43 15° ENE 08:43:18 10° ENE visible
24 Oct 12.5 10:53:26 67° E 10:53:26 67° E 11:12:36 10° E visible
24 Oct 12.7 13:06:10 40° W 13:16:18 74° SSW 13:39:50 10° ESE visible
25 Oct 13.7 09:00:41 20° E 09:00:41 20° E 09:05:19 10° E visible
25 Oct 12.4 11:13:25 77° ESE 11:13:25 77° ESE 11:34:35 10° E visible
25 Oct 12.8 13:26:08 33° W 13:37:53 66° SSW 14:00:57 10° SE visible
26 Oct 13.5 09:20:41 25° E 09:20:41 25° E 09:27:21 10° E visible
26 Oct 12.3 11:33:25 84° SSE 11:33:25 84° SSE 11:56:27 10° ESE visible
26 Oct 12.9 13:46:09 27° W 13:59:21 58° SSW 14:21:46 10° SE visible
27 Oct 13.4 09:40:44 30° E 09:40:44 30° E 09:49:26 10° E visible
27 Oct 12.3 11:53:28 78° SW 11:54:32 79° SSW 12:18:09 10° ESE visible
27 Oct 13.1 14:06:12 21° W 14:20:41 49° SW 14:42:13 10° SSE visible
28 Oct 13.2 10:00:48 36° E 10:00:48 36° E 10:11:31 10° E visible
28 Oct 12.3 12:13:33 67° WSW 12:16:08 72° SSW 12:39:37 10° ESE visible
28 Oct 13.2 14:26:17 15° W 14:41:56 40° SW 15:02:16 10° SSE visible
29 Oct 13.0 10:20:55 42° E 10:20:55 42° E 10:33:33 10° ESE visible
29 Oct 12.4 12:33:40 57° WSW 12:37:40 64° SSW 13:00:47 10° SE visible
29 Oct 13.4 14:46:24 10° W 15:03:07 32° SW 15:21:46 10° SSE visible
30 Oct 12.8 10:41:04 48° ESE 10:41:04 48° ESE 10:55:29 10° ESE visible
30 Oct 12.5 12:53:49 47° WSW 12:59:08 55° SSW 13:21:37 10° SE visible
30 Oct 13.5 15:09:15 10° W 15:24:16 24° SW 15:40:32 10° S visible
